TimeCDT,TemperatureF,Dew PointF,Humidity,Sea Level PressureIn,VisibilityMPH,Wind Direction,Wind SpeedMPH,Gust SpeedMPH,PrecipitationIn,Events,Conditions,WindDirDegrees,DateUTC
12:15 AM,51.3,32.9,50,29.93,10.0,South,11.5,-,N/A,,Scattered Clouds,170,2012-10-09 05:15:00
12:35 AM,50.9,32.9,50,29.93,10.0,South,10.4,-,N/A,,Clear,170,2012-10-09 05:35:00
12:55 AM,50.9,33.1,51,29.93,10.0,South,8.1,-,N/A,,Scattered Clouds,170,2012-10-09 05:55:00
1:15 AM,50.9,33.1,51,29.93,10.0,South,8.1,-,N/A,,Scattered Clouds,170,2012-10-09 06:15:00
1:35 AM,49.8,32.9,52,29.93,10.0,SSE,8.1,-,N/A,,Clear,160,2012-10-09 06:35:00
1:55 AM,50.0,32.9,52,29.93,10.0,SSE,6.9,-,N/A,,Clear,160,2012-10-09 06:55:00
2:15 AM,49.3,33.1,54,29.92,10.0,SSE,6.9,-,N/A,,Clear,150,2012-10-09 07:15:00
2:35 AM,48.2,33.4,57,29.91,10.0,SE,5.8,-,N/A,,Scattered Clouds,140,2012-10-09 07:35:00
2:55 AM,48.2,33.8,58,29.91,10.0,SSE,6.9,-,N/A,,Mostly Cloudy,150,2012-10-09 07:55:00
3:15 AM,48.7,34.0,57,29.89,10.0,SSE,5.8,-,N/A,,Mostly Cloudy,160,2012-10-09 08:15:00
3:35 AM,49.3,34.2,56,29.89,10.0,South,8.1,-,N/A,,Scattered Clouds,170,2012-10-09 08:35:00
3:55 AM,49.1,34.2,56,29.90,10.0,South,6.9,-,N/A,,Scattered Clouds,170,2012-10-09 08:55:00
4:15 AM,46.4,34.2,62,29.90,10.0,South,5.8,-,N/A,,Clear,170,2012-10-09 09:15:00
4:35 AM,48.4,35.1,60,29.89,10.0,South,6.9,-,N/A,,Clear,170,2012-10-09 09:35:00
4:55 AM,50.2,35.8,58,29.89,10.0,South,12.7,-,N/A,,Clear,190,2012-10-09 09:55:00
5:15 AM,51.8,36.1,55,29.89,10.0,South,11.5,-,N/A,,Clear,190,2012-10-09 10:15:00
5:35 AM,52.0,36.1,55,29.89,10.0,South,11.5,-,N/A,,Scattered Clouds,190,2012-10-09 10:35:00
5:55 AM,51.8,36.5,56,29.89,10.0,South,11.5,-,N/A,,Scattered Clouds,180,2012-10-09 10:55:00
6:15 AM,50.9,36.1,57,29.88,10.0,SSE,6.9,-,N/A,,Mostly Cloudy,160,2012-10-09 11:15:00
6:35 AM,48.7,35.8,61,29.88,10.0,SSE,3.5,-,N/A,,Scattered Clouds,150,2012-10-09 11:35:00
6:55 AM,48.9,36.3,62,29.88,10.0,SSE,6.9,-,N/A,,Clear,150,2012-10-09 11:55:00
7:15 AM,46.6,35.6,66,29.88,10.0,SSE,8.1,-,N/A,,Clear,150,2012-10-09 12:15:00
7:35 AM,47.5,35.8,64,29.88,10.0,SSE,9.2,-,N/A,,Clear,160,2012-10-09 12:35:00
7:55 AM,47.8,36.1,64,29.88,10.0,SSE,9.2,-,N/A,,Clear,160,2012-10-09 12:55:00
8:15 AM,48.2,36.7,64,29.88,10.0,South,10.4,-,N/A,,Scattered Clouds,170,2012-10-09 13:15:00
8:35 AM,49.6,37.0,62,29.89,10.0,South,9.2,-,N/A,,Mostly Cloudy,180,2012-10-09 13:35:00
8:55 AM,50.0,37.9,63,29.88,10.0,South,10.4,-,N/A,,Mostly Cloudy,180,2012-10-09 13:55:00
9:15 AM,51.3,38.3,61,29.88,10.0,South,12.7,16.1,N/A,,Overcast,180,2012-10-09 14:15:00
9:35 AM,51.1,38.5,62,29.88,10.0,South,8.1,-,N/A,,Mostly Cloudy,190,2012-10-09 14:35:00
9:55 AM,52.3,39.2,61,29.87,10.0,South,8.1,-,N/A,,Scattered Clouds,180,2012-10-09 14:55:00
10:15 AM,55.6,38.8,53,29.87,10.0,South,11.5,17.3,N/A,,Scattered Clouds,190,2012-10-09 15:15:00
10:35 AM,55.8,38.8,53,29.86,10.0,South,9.2,-,N/A,,Mostly Cloudy,180,2012-10-09 15:35:00
10:55 AM,56.7,38.8,51,29.87,10.0,SSW,13.8,18.4,N/A,,Mostly Cloudy,210,2012-10-09 15:55:00
11:15 AM,59.0,38.7,47,29.86,10.0,SSW,11.5,20.7,N/A,,Scattered Clouds,200,2012-10-09 16:15:00
11:35 AM,59.9,38.7,45,29.86,10.0,SW,12.7,18.4,N/A,,Scattered Clouds,220,2012-10-09 16:35:00
11:55 AM,59.7,38.7,46,29.86,10.0,SW,10.4,16.1,N/A,,Clear,230,2012-10-09 16:55:00
12:15 PM,60.6,38.3,44,29.86,10.0,SW,10.4,-,N/A,,Clear,220,2012-10-09 17:15:00
12:35 PM,61.7,38.8,43,29.84,10.0,SW,11.5,-,N/A,,Clear,220,2012-10-09 17:35:00
12:55 PM,62.4,38.7,41,29.83,10.0,SSW,12.7,-,N/A,,Clear,200,2012-10-09 17:55:00
1:15 PM,61.7,37.6,41,29.82,10.0,SSW,13.8,-,N/A,,Clear,200,2012-10-09 18:15:00
1:35 PM,61.7,38.3,42,29.82,10.0,SW,10.4,-,N/A,,Clear,220,2012-10-09 18:35:00
1:55 PM,61.7,38.5,42,29.82,10.0,SW,11.5,-,N/A,,Clear,220,2012-10-09 18:55:00
2:15 PM,62.8,37.9,40,29.82,10.0,SW,15.0,19.6,N/A,,Clear,220,2012-10-09 19:15:00
2:35 PM,63.5,38.3,39,29.82,10.0,SW,16.1,21.9,N/A,,Clear,220,2012-10-09 19:35:00
2:55 PM,63.7,38.5,39,29.81,10.0,SW,13.8,18.4,N/A,,Clear,230,2012-10-09 19:55:00
3:15 PM,62.6,37.8,40,29.82,10.0,WSW,15.0,21.9,N/A,,Clear,240,2012-10-09 20:15:00
3:35 PM,62.6,38.3,41,29.82,10.0,SW,11.5,20.7,N/A,,Scattered Clouds,230,2012-10-09 20:35:00
3:55 PM,62.6,39.0,42,29.82,10.0,SW,11.5,16.1,N/A,,Mostly Cloudy,230,2012-10-09 20:55:00
4:15 PM,61.5,39.7,45,29.83,10.0,WNW,15.0,19.6,N/A,,Overcast,300,2012-10-09 21:15:00
4:35 PM,56.8,43.2,60,29.85,10.0,WNW,18.4,24.2,N/A,,Overcast,290,2012-10-09 21:35:00
4:55 PM,54.0,41.7,63,29.86,10.0,NW,18.4,25.3,N/A,,Overcast,310,2012-10-09 21:55:00
5:15 PM,51.6,39.2,63,29.88,10.0,NW,21.9,28.8,N/A,,Overcast,310,2012-10-09 22:15:00
5:35 PM,50.4,39.6,66,29.88,10.0,WNW,18.4,29.9,N/A,,Overcast,300,2012-10-09 22:35:00
5:55 PM,48.2,42.1,79,29.89,10.0,WNW,13.8,21.9,N/A,Rain,Rain,300,2012-10-09 22:55:00
6:15 PM,46.4,43.3,89,29.90,7.0,NW,10.4,-,0.01,Rain,Rain,320,2012-10-09 23:15:00
6:35 PM,45.9,43.3,91,29.91,10.0,NW,5.8,-,0.03,Rain,Light Rain,320,2012-10-09 23:35:00
6:55 PM,45.7,42.3,88,29.91,10.0,WNW,9.2,-,0.03,Rain,Light Rain,300,2012-10-09 23:55:00
7:15 PM,45.5,41.9,87,29.91,10.0,WNW,5.8,-,0.01,,Drizzle,290,2012-10-10 00:15:00
7:35 PM,45.0,41.0,86,29.92,10.0,WNW,6.9,-,0.01,,Drizzle,290,2012-10-10 00:35:00
7:55 PM,44.8,40.8,86,29.92,10.0,West,5.8,-,0.01,Rain,Rain,260,2012-10-10 00:55:00
8:15 PM,44.6,41.0,87,29.91,10.0,West,6.9,-,0.01,Rain,Light Rain,260,2012-10-10 01:15:00
8:35 PM,44.6,41.2,88,29.92,10.0,WSW,6.9,-,0.01,,Overcast,250,2012-10-10 01:35:00
8:55 PM,44.8,41.5,88,29.93,10.0,WSW,9.2,-,0.01,,Overcast,250,2012-10-10 01:55:00
9:15 PM,44.8,41.7,89,29.93,10.0,West,5.8,-,N/A,,Overcast,260,2012-10-10 02:15:00
9:35 PM,44.8,41.9,90,29.93,10.0,West,8.1,-,N/A,,Overcast,270,2012-10-10 02:35:00
9:55 PM,44.8,41.9,90,29.94,10.0,West,10.4,-,N/A,,Mostly Cloudy,280,2012-10-10 02:55:00
10:15 PM,45.0,41.9,89,29.94,10.0,West,6.9,-,N/A,,Clear,270,2012-10-10 03:15:00
10:35 PM,45.0,41.4,87,29.94,10.0,West,6.9,-,N/A,,Clear,280,2012-10-10 03:35:00
10:55 PM,44.8,41.0,87,29.95,10.0,West,6.9,-,N/A,,Clear,270,2012-10-10 03:55:00
11:15 PM,44.2,40.5,87,29.95,10.0,West,9.2,-,N/A,,Clear,270,2012-10-10 04:15:00
11:35 PM,44.1,39.9,85,29.95,10.0,West,8.1,-,N/A,,Clear,280,2012-10-10 04:35:00
11:55 PM,43.9,38.3,81,29.96,10.0,WNW,11.5,19.6,N/A,,Clear,290,2012-10-10 04:55:00